Regional Weather Roundup
Issued by NWS Sioux Falls, SD

Home | Current Version | Previous Version | Text Only | Print | Product List | Glossary On
Versions: 1 2 3 4 5 6 7 8 9 10 11 12 13 14 15 16 17 18 19 20 21 22 23 24 25 26 27 28 29 30 31 32 33 34 35 36 37 38 39 40 41 42 43 44 45 46 47 48 49 50
000
ASUS43 KFSD 130010
RWRFSD

WEATHER ROUNDUP FOR SE SOUTH DAKOTA/SW MINNESOTA/NW IOWA
NATIONAL WEATHER SERVICE SIOUX FALLS SD
600 PM CST TUE DEC 12 2017

NOTE: "FAIR" INDICATES FEW OR NO CLOUDS BELOW 12,000 FEET WITH NO
SIGNIFICANT WEATHER AND OR OBSTRUCTIONS TO VISIBILITY.


SDZ038>040-050-052>070-130100-
SOUTHEAST SOUTH DAKOTA

CITY           SKY/WX    TMP DP  RH WIND       PRES   REMARKS
BROOKINGS      CLEAR     33  27  78 S10       29.82F WCI  25
CHAMBERLAIN    CLEAR     48  23  36 SW12      29.84F
6HR MIN TEMP:  42; 6HR MAX TEMP:  56;

HURON          CLEAR     40  24  53 S9        29.81F
6HR MIN TEMP:  40; 6HR MAX TEMP:  48;

MADISON        FAIR      36  32  87 SW14      29.82F
MITCHELL       CLEAR     40  29  64 SW9       29.84F
6HR MIN TEMP:  40; 6HR MAX TEMP:  48;

SIOUX FALLS    CLEAR     38  29  70 SW6       29.86F
6HR MIN TEMP:  31; 6HR MAX TEMP:  42;

WINNER         FAIR      51  20  29 SW6       29.87F
YANKTON        CLEAR     42  26  53 S8        29.88F
$$

MNZ071-072-080-081-089-090-097-098-130100-
SOUTHWEST MINNESOTA

CITY           SKY/WX    TMP DP  RH WIND       PRES   REMARKS
FAIRMONT       CLEAR     33  26  75 SW13      29.88F WCI  24
JACKSON        CLEAR     32  27  80 MISG      29.86F
LUVERNE        CLEAR     30  25  80 SW7       29.87F WCI  23
MARSHALL       CLEAR     37  29  72 SW13      29.81F
6HR MIN TEMP:  30; 6HR MAX TEMP:  41;

MONTEVIDEO     CLEAR     34  27  75 W7        29.79F WCI  28
PIPESTONE      CLEAR     32  27  80 SW10      29.83F WCI  24
REDWOOD FALLS  PTCLDY    34  27  75 SW10      29.82F WCI  26
WINDOM         CLEAR     32  19  59 SW12      29.85F WCI  23
WORTHINGTON    CLEAR     33  27  78 SW15G21   29.85F WCI  23
$$

IAZ001>003-012>014-020>022-031-032-NEZ013-014-SDZ071-130100-
NORTHWEST IOWA

CITY           SKY/WX    TMP DP  RH WIND       PRES   REMARKS
CHEROKEE       CLEAR     29  24  79 S7        29.92F WCI  22
DENISON        CLEAR     32  23  69 S9        29.98F WCI  24
ESTHERVILLE    CLEAR     32  25  75 SW15      29.88F WCI  22
LE MARS        CLEAR     34  27  75 S5        29.91F WCI  30
ORANGE CITY    CLEAR     30  28  93 SW9       29.89F WCI  22
SHELDON        CLEAR     32  27  80 S9        29.87F WCI  24
SIOUX CITY     CLEAR     33  23  66 S5        29.93F WCI  29
6HR MIN TEMP:  32; 6HR MAX TEMP:  45;

SPENCER        CLEAR     31  23  72 SW10      29.90F WCI  22
6HR MIN TEMP:  28; 6HR MAX TEMP:  38;

STORM LAKE     CLEAR     28  21  74 SW10      29.92F WCI  19
$$

ABBREVIATIONS USED IN REMARKS
   TC - TEMPERATURE IN CELSIUS
  WCI - WIND CHILL INDEX
   HX - HEAT INDEX
  VSB - VISIBILITY





USA.gov is the U.S. government's official web portal to all federal, state and local government web resources and services.